OBJECT G, 62615

Orbit data source: Space-Track

You're viewing an Uncataloged Satellite

Recently launched and/or uncataloged satellites may have evolving metadata. Metadata may include but not limited to: Owner, Maufacturer, Bus, Motor, and Mission.

OBJECT G, 62615 is a satellite in SSO that was launched on Tue, 14 Jan 2025 UTC via an FALCON 9 launch vehicle from the Air Force Western Test Range (AFWTR). Unknown objects in Earth's orbit typically refer to objects detected orbiting the Earth but have not yet been identified or cataloged. These objects could be anything from previously untracked satellites, spent rocket stages, debris from satellite collisions, or even natural meteoroids temporarily captured by Earth's gravity.

Loading next visibility...
Identifier
62615, 2025-009G
Orbit
SSO
Country
Flag of TBDTBD
Related business
None
Manufacturer
Unknown
Mission
Operational Commercial Weather
Bus & Motor
Unknown
Mass
Unknown
Launch date (UTC)
2025-01-14 (1 year ago)
Launch vehicle
FALCON 9
Launch site
Air Force Western Test Range (AFWTR)
Object type
Unknown
Shape & HBR
Box, 0.4 m
Radar Cross Section
0.015 m², Medium (>0.1 m² and < 1m²)

Expand to show TLE details & history
Last TLE update: 1 day ago

TLE from 1 day ago
0 OBJECT G
1 62615U 25009G   26170.77046503  .00005372  00000-0  21291-3 0  9999
2 62615  97.3942 250.7067 0005033 330.9769  29.1189 15.25808650 79197
Epoch: 2026-06-19T18:29Z
TLE epoch observation values (Epoch: 2026-06-19T18:29:28.178Z)
Latitude
-0.00001°
Longitude
65.34462°
Altitude
488.437 km
Speed
7.623 km/s
True Right ascension
16h 42m 49s
True Declination
0° 00' 00"
Sunlit
Object was in full shadow at epoch
Visualization orbit readout
Latitude
Unknown
Longitude
Unknown
Altitude
Unknown
Speed
Unknown
Apparent Right ascension
Unknown
Apparent Declination
Unknown
Sunlit
N/A
Visualization observer readout
Local Sidereal Time
10:20:28
Azimuth
Unknown
Elevation
Unknown
Doppler factor
Unknown
Orbital elements
Apogee altitude
488.77 km
Perigee altitude
481.861 km
Semi-major axis
6,863.453 km
Eccentricity
0.0005
Inclination
97.3942°
RAAN
250.7067°
Arg. of periapsis
330.9769°
True anomaly
29.14698°
Mean anomaly
29.1189°
Eccentric anomaly
29.13294°
Mean motion
3.81706 °/min
Orbital period
94.31 mins
BSTAR
0.00021291
Loading maneuver chart data...
Computing Atmospheric mass density...
Loading historical data...
Loading historical data...
Loading historical data...
Loading historical data...
Loading historical data...
Loading historical data...
Loading historical data...

Documentation

Showing up to 5 results
|